571  
ASUS43 KLMK 241310  
RWRKY  
KENTUCKY REGIONAL WEATHER ROUNDUP  
NATIONAL WEATHER SERVICE LOUISVILLE KY  
800 AM EST MON FEB 24 2020  
 
NOTE "FAIR" INDICATES FEW OR NO CLOUDS BELOW 12,000 FEET  
WITH NO SIGNIFICANT WEATHER AND/OR S TO VISIBILITY
.  
 
KYZ001>023-026-027-061>063-070>075-241400-  
WESTERN AND SOUTH CENTRAL KENTUCKY  
 
CITY SKY/WX TMP DP RH WIND PRES REMARKS
 
PADUCAH LGT RAIN 45 42 89 SE12 29.83F FOG  
HENDERSON LGT RAIN 42 41 96 SE8 29.90F  
OWENSBORO LGT RAIN 43 43 100 SE13 29.93F FOG  
HOPKINSVILLE MOCLDY 43 43 100 SE10 29.91F  
BOWLING GREEN LGT RAIN 44 40 85 SE8 29.98F  
GLASGOW RAIN 41 40 96 S7 30.00F  

 
 
KYZ024-025-028>034-038-045-046-053-241400-  
NORTH CENTRAL KENTUCKY  
 
CITY SKY/WX TMP DP RH WIND PRES REMARKS
 
LOUISVILLE/SDF LGT RAIN 44 41 89 SE6 29.99F  
LOUISVILLE/LOU LGT RAIN 44 41 89 SE6 30.00S FOG  
FORT KNOX CLOUDY 43 43 100 SE6 29.99R FOG  

 
 
KYZ035>037-039>044-047>052-055>060-089>105-241400-  
NORTHEAST KENTUCKY  
 
CITY SKY/WX TMP DP RH WIND PRES REMARKS
 
LEXINGTON LGT RAIN 40 38 93 S10 30.03R WCI 33  
COVINGTON LGT RAIN 41 35 79 S7 29.98R  
FRANKFORT LGT RAIN 43 39 86 S7 30.01S  

 
 
KYZ054-064>069-076>088-106>120-241400-  
SOUTHEAST KENTUCKY  
 
CITY SKY/WX TMP DP RH WIND PRES REMARKS
 
JACKSON LGT RAIN 41 35 79 VRB3 30.05S  
LONDON LGT RAIN 40 37 89 S5 30.06R  
SOMERSET CLOUDY 39 37 93 SW3 30.05F  
MIDDLESBORO CLOUDY 40 40 100 CALM 30.07F  
MONTICELLO LGT RAIN 42 41 96 E8 30.06S  

 
 
 
 
CLICK HERE TO GO TO PREVIOUS BULLETINS.

The Nexlab KY Page Main Text Page